�������l�o���
Date,Time,MP-1(��Sv/h),MP-2(��Sv/h),MP-3(��Sv/h),MP-4(��Sv/h),MP-5(��Sv/h),MP-6(��Sv/h),MP-7(��Sv/h),MP-8(��Sv/h),����,����(m/s),���J
2021/07/15,00:00,0.596,0.887,0.570,1.076,0.763,0.366,0.631,0.592,�k�k��,2.5,��
2021/07/15,00:10,0.595,0.890,0.570,1.076,0.765,0.365,0.631,0.592,�k,1.5,��
2021/07/15,00:20,0.596,0.888,0.572,1.078,0.766,0.366,0.632,0.593,�k�k��,1.7,��
2021/07/15,00:30,0.596,0.888,0.572,1.077,0.764,0.365,0.632,0.592,�k,1.9,��
2021/07/15,00:40,0.596,0.888,0.571,1.077,0.765,0.365,0.632,0.592,�k,2.6,��
2021/07/15,00:50,0.596,0.887,0.571,1.077,0.765,0.365,0.631,0.591,�k,2.6,��
2021/07/15,01:00,0.596,0.888,0.571,1.075,0.764,0.365,0.630,0.591,�k�k��,2.2,��
2021/07/15,01:10,0.595,0.887,0.572,1.077,0.765,0.365,0.630,0.593,�k,2.2,��
2021/07/15,01:20,0.596,0.887,0.570,1.074,0.766,0.365,0.630,0.593,�k,2.3,��
2021/07/15,01:30,0.597,0.888,0.571,1.075,0.766,0.364,0.631,0.591,�k�k��,2.0,��
2021/07/15,01:40,0.594,0.884,0.571,1.076,0.765,0.366,0.631,0.591,�k�k��,1.4,��
2021/07/15,01:50,0.596,0.889,0.570,1.077,0.767,0.366,0.631,0.591,�k�k��,1.4,��
2021/07/15,02:00,0.596,0.889,0.570,1.076,0.765,0.366,0.632,0.593,�k�k��,2.3,��
2021/07/15,02:10,0.598,0.887,0.572,1.077,0.768,0.366,0.631,0.591,�k�k��,1.9,��
2021/07/15,02:20,0.597,0.889,0.572,1.077,0.765,0.365,0.633,0.589,�k�k��,2.0,��
2021/07/15,02:30,0.597,0.888,0.570,1.076,0.767,0.365,0.633,0.591,�k�k��,2.6,��
2021/07/15,02:40,0.599,0.886,0.571,1.077,0.766,0.367,0.633,0.591,�k�k��,2.0,��
2021/07/15,02:50,0.594,0.888,0.571,1.076,0.765,0.366,0.632,0.592,�k�k��,2.9,��
2021/07/15,03:00,0.595,0.886,0.572,1.077,0.764,0.366,0.633,0.591,�k��,2.0,��
2021/07/15,03:10,0.594,0.887,0.570,1.076,0.766,0.367,0.631,0.593,�k�k��,2.0,��
2021/07/15,03:20,0.595,0.887,0.573,1.076,0.766,0.366,0.631,0.593,�k�k��,2.6,��
2021/07/15,03:30,0.596,0.885,0.571,1.077,0.765,0.366,0.632,0.593,�k�k��,2.8,��
2021/07/15,03:40,0.598,0.887,0.571,1.077,0.766,0.367,0.630,0.591,�k�k��,2.8,��
2021/07/15,03:50,0.596,0.888,0.572,1.078,0.767,0.367,0.632,0.591,�k�k��,3.7,��
2021/07/15,04:00,0.597,0.888,0.571,1.074,0.765,0.365,0.633,0.592,�k�k��,3.2,��
2021/07/15,04:10,0.597,0.888,0.571,1.077,0.766,0.364,0.632,0.592,�k�k��,2.0,��
2021/07/15,04:20,0.596,0.887,0.571,1.078,0.765,0.366,0.632,0.591,�k,2.2,��
2021/07/15,04:30,0.596,0.888,0.571,1.074,0.765,0.366,0.631,0.592,�k,2.3,��
2021/07/15,04:40,0.595,0.887,0.571,1.077,0.765,0.365,0.632,0.592,�k�k��,2.6,��
2021/07/15,04:50,0.595,0.885,0.571,1.078,0.768,0.366,0.630,0.591,�k,2.6,��
2021/07/15,05:00,0.595,0.888,0.571,1.076,0.766,0.366,0.632,0.591,�k�k��,1.9,��
2021/07/15,05:10,0.594,0.887,0.571,1.075,0.766,0.364,0.631,0.592,�k�k��,2.0,��
2021/07/15,05:20,0.597,0.888,0.571,1.076,0.766,0.365,0.631,0.592,�k�k��,1.2,��
2021/07/15,05:30,0.596,0.886,0.571,1.076,0.767,0.365,0.632,0.592,�k,1.4,��
2021/07/15,05:40,0.595,0.886,0.570,1.076,0.765,0.364,0.633,0.591,�k�k��,1.2,��
2021/07/15,05:50,0.594,0.888,0.572,1.078,0.765,0.365,0.630,0.592,�k�k��,2.0,�L
2021/07/15,06:00,0.595,0.886,0.570,1.077,0.766,0.364,0.631,0.591,�k��,1.5,�L
2021/07/15,06:10,0.597,0.889,0.570,1.076,0.765,0.364,0.631,0.591,�k��,2.0,��
2021/07/15,06:20,0.593,0.887,0.571,1.076,0.765,0.365,0.630,0.591,�k�k��,1.9,��
2021/07/15,06:30,0.594,0.887,0.571,1.076,0.764,0.365,0.630,0.592,�k��,1.4,��
2021/07/15,06:40,0.592,0.888,0.570,1.076,0.765,0.365,0.630,0.591,�k��,1.7,��
2021/07/15,06:50,0.593,0.888,0.572,1.074,0.766,0.366,0.630,0.592,�k��,1.9,��
2021/07/15,07:00,0.594,0.885,0.571,1.076,0.765,0.365,0.629,0.591,���쓌,1.5,��
2021/07/15,07:10,0.593,0.886,0.571,1.075,0.765,0.364,0.630,0.592,���쓌,1.2,��
2021/07/15,07:20,0.593,0.886,0.570,1.077,0.765,0.365,0.629,0.589,�쓌,1.4,��
2021/07/15,07:30,0.593,0.885,0.569,1.075,0.765,0.363,0.631,0.589,���쓌,1.9,��
2021/07/15,07:40,0.593,0.887,0.568,1.076,0.763,0.363,0.629,0.590,��,1.2,��
2021/07/15,07:50,0.594,0.885,0.570,1.077,0.763,0.363,0.628,0.590,���k��,1.5,��
2021/07/15,08:00,0.596,0.887,0.570,1.077,0.763,0.365,0.629,0.590,���k��,1.5,��
2021/07/15,08:10,0.594,0.886,0.568,1.077,0.763,0.363,0.630,0.589,�k�k��,2.0,��
2021/07/15,08:20,0.594,0.884,0.569,1.077,0.764,0.363,0.629,0.590,�k,1.2,��
2021/07/15,08:30,0.591,0.884,0.571,1.077,0.762,0.364,0.631,0.589,���k��,1.7,��
2021/07/15,08:40,0.593,0.879,0.570,1.077,0.764,0.364,0.630,0.591,�k��,1.5,��
2021/07/15,08:50,0.595,0.882,0.569,1.075,0.764,0.364,0.631,0.589,�k��,1.7,��
2021/07/15,09:00,0.593,0.881,0.569,1.074,0.765,0.364,0.629,0.589,���k��,2.3,��
2021/07/15,09:10,0.595,0.882,0.569,1.075,0.764,0.364,0.630,0.587,��,1.9,��
2021/07/15,09:20,0.595,0.883,0.570,1.077,0.762,0.364,0.631,0.588,���k��,2.6,��
2021/07/15,09:30,0.596,0.882,0.568,1.074,0.763,0.364,0.631,0.588,���k��,1.7,��
2021/07/15,09:40,0.595,0.882,0.568,1.076,0.765,0.364,0.630,0.589,��,1.7,��
2021/07/15,09:50,0.596,0.881,0.568,1.078,0.765,0.365,0.630,0.589,��,1.9,��
2021/07/15,10:00,0.594,0.885,0.569,1.077,0.765,0.364,0.632,0.589,���k��,1.5,��
2021/07/15,10:10,0.595,0.884,0.568,1.077,0.765,0.365,0.632,0.589,���k��,2.0,��
2021/07/15,10:20,0.596,0.884,0.568,1.075,0.766,0.365,0.631,0.589,��,1.4,��
2021/07/15,10:30,0.597,0.883,0.569,1.074,0.766,0.365,0.631,0.591,��,2.0,��
2021/07/15,10:40,0.596,0.884,0.569,1.075,0.766,0.364,0.631,0.592,���쓌,2.3,��
2021/07/15,10:50,0.596,0.884,0.570,1.073,0.766,0.366,0.631,0.589,��,2.6,��
2021/07/15,11:00,0.596,0.889,0.571,1.076,0.767,0.366,0.631,0.589,���쓌,2.9,��
2021/07/15,11:10,0.597,0.887,0.570,1.076,0.765,0.366,0.632,0.590,���쓌,3.0,��
2021/07/15,11:20,0.597,0.889,0.570,1.076,0.767,0.366,0.631,0.591,���쓌,3.7,��
2021/07/15,11:30,0.597,0.888,0.570,1.078,0.768,0.366,0.632,0.591,���쓌,2.9,��
2021/07/15,11:40,0.596,0.888,0.572,1.078,0.768,0.367,0.633,0.591,�쓌,3.0,��
2021/07/15,11:50,0.599,0.890,0.571,1.077,0.768,0.365,0.632,0.590,���쓌,2.3,��
2021/07/15,12:00,0.600,0.890,0.570,1.075,0.768,0.366,0.631,0.590,���쓌,3.1,��
2021/07/15,12:10,0.598,0.891,0.570,1.076,0.768,0.365,0.632,0.590,���쓌,3.0,��
2021/07/15,12:20,0.596,0.893,0.571,1.077,0.768,0.367,0.633,0.590,�쓌,3.7,��
2021/07/15,12:30,0.597,0.890,0.571,1.077,0.768,0.367,0.632,0.591,�쓌,2.8,��
2021/07/15,12:40,0.599,0.890,0.572,1.078,0.770,0.366,0.634,0.590,���쓌,2.9,��
2021/07/15,12:50,0.599,0.890,0.571,1.078,0.770,0.366,0.632,0.592,���쓌,2.0,��
2021/07/15,13:00,0.600,0.893,0.572,1.079,0.770,0.366,0.632,0.591,���쓌,2.8,��
2021/07/15,13:10,0.600,0.891,0.572,1.079,0.769,0.366,0.634,0.591,���쓌,3.6,��
2021/07/15,13:20,0.599,0.890,0.572,1.080,0.770,0.366,0.634,0.591,���쓌,3.1,��
2021/07/15,13:30,0.599,0.891,0.573,1.078,0.771,0.366,0.634,0.593,�쓌,3.8,��
2021/07/15,13:40,0.600,0.892,0.570,1.079,0.772,0.366,0.633,0.591,���쓌,3.7,��
2021/07/15,13:50,0.598,0.890,0.573,1.078,0.770,0.366,0.633,0.591,���쓌,4.1,��
2021/07/15,14:00,0.599,0.891,0.574,1.081,0.774,0.366,0.634,0.592,�쓌,5.0,��
2021/07/15,14:10,0.599,0.891,0.574,1.079,0.772,0.366,0.634,0.590,��쓌,5.5,��
2021/07/15,14:20,0.599,0.890,0.574,1.081,0.772,0.367,0.634,0.592,�쓌,6.2,��
2021/07/15,14:30,0.601,0.894,0.573,1.082,0.772,0.366,0.635,0.592,�쓌,5.7,��
2021/07/15,14:40,0.600,0.893,0.573,1.081,0.772,0.368,0.635,0.593,�쓌,5.7,��
2021/07/15,14:50,0.600,0.892,0.574,1.080,0.772,0.366,0.634,0.591,��쓌,5.9,��
2021/07/15,15:00,0.600,0.894,0.573,1.081,0.772,0.367,0.635,0.593,��쓌,6.4,��
2021/07/15,15:10,0.600,0.896,0.573,1.081,0.771,0.367,0.634,0.591,��쓌,6.6,��
2021/07/15,15:20,0.600,0.894,0.573,1.082,0.771,0.367,0.634,0.591,��쓌,5.0,��
2021/07/15,15:30,0.599,0.894,0.573,1.080,0.773,0.368,0.634,0.592,��쓌,6.2,��
2021/07/15,15:40,0.601,0.893,0.573,1.081,0.772,0.366,0.632,0.593,��쓌,7.0,��
2021/07/15,15:50,0.602,0.896,0.574,1.083,0.774,0.366,0.634,0.591,��쓌,7.3,��
2021/07/15,16:00,0.599,0.895,0.573,1.083,0.772,0.366,0.634,0.589,��,7.8,��
2021/07/15,16:10,0.601,0.892,0.573,1.082,0.772,0.366,0.632,0.590,��,7.6,��
2021/07/15,16:20,0.601,0.894,0.572,1.081,0.771,0.367,0.633,0.590,��쓌,8.2,��
2021/07/15,16:30,0.601,0.893,0.574,1.081,0.773,0.367,0.633,0.593,��쓌,6.7,��
2021/07/15,16:40,0.601,0.895,0.573,1.082,0.771,0.366,0.634,0.592,��쓌,6.9,��
2021/07/15,16:50,0.599,0.895,0.574,1.083,0.771,0.366,0.634,0.592,��쓌,8.3,��
2021/07/15,17:00,0.601,0.895,0.573,1.083,0.772,0.365,0.632,0.590,��쓌,7.9,��
2021/07/15,17:10,0.600,0.894,0.575,1.080,0.772,0.366,0.633,0.591,��쓌,8.4,��
2021/07/15,17:20,0.600,0.896,0.575,1.080,0.771,0.367,0.634,0.591,��쓌,7.8,��
2021/07/15,17:30,0.601,0.895,0.575,1.082,0.773,0.365,0.633,0.589,��쓌,7.4,��
2021/07/15,17:40,0.600,0.894,0.573,1.082,0.773,0.365,0.633,0.592,��쓌,6.6,��
2021/07/15,17:50,0.601,0.896,0.575,1.084,0.773,0.366,0.632,0.591,��쓌,7.7,��
2021/07/15,18:00,0.601,0.895,0.575,1.086,0.773,0.366,0.634,0.593,��쓌,7.1,��
2021/07/15,18:10,0.599,0.894,0.575,1.087,0.775,0.366,0.633,0.593,��,7.1,��
2021/07/15,18:20,0.601,0.896,0.575,1.085,0.772,0.367,0.636,0.593,��,6.0,��
2021/07/15,18:30,0.599,0.894,0.575,1.086,0.773,0.365,0.635,0.593,��,6.4,��
2021/07/15,18:40,0.601,0.897,0.576,1.084,0.773,0.367,0.636,0.592,��쓌,5.4,��
2021/07/15,18:50,0.600,0.896,0.574,1.086,0.774,0.366,0.634,0.592,��,5.4,��
2021/07/15,19:00,0.600,0.894,0.576,1.085,0.773,0.367,0.634,0.592,��,5.9,��
2021/07/15,19:10,0.601,0.896,0.574,1.085,0.773,0.367,0.635,0.593,��,5.9,��
2021/07/15,19:20,0.600,0.896,0.575,1.085,0.773,0.368,0.633,0.593,��쓌,4.5,��
2021/07/15,19:30,0.602,0.898,0.577,1.086,0.775,0.367,0.635,0.593,��,4.4,��
2021/07/15,19:40,0.602,0.898,0.577,1.086,0.776,0.368,0.634,0.594,��,5.4,��
2021/07/15,19:50,0.600,0.898,0.573,1.087,0.773,0.369,0.634,0.592,��,5.1,��
2021/07/15,20:00,0.600,0.896,0.575,1.087,0.774,0.368,0.635,0.593,��,3.9,��
2021/07/15,20:10,0.603,0.896,0.576,1.085,0.775,0.368,0.634,0.592,��,3.8,��
2021/07/15,20:20,0.604,0.897,0.577,1.085,0.774,0.367,0.633,0.592,��,4.8,��
2021/07/15,20:30,0.600,0.897,0.574,1.088,0.777,0.367,0.634,0.593,��,4.7,��
2021/07/15,20:40,0.602,0.897,0.575,1.089,0.775,0.366,0.634,0.593,��,4.6,��
2021/07/15,20:50,0.601,0.900,0.577,1.085,0.776,0.368,0.633,0.593,��,4.8,��
2021/07/15,21:00,0.602,0.896,0.576,1.086,0.774,0.367,0.633,0.593,��쐼,3.9,��
2021/07/15,21:10,0.603,0.897,0.576,1.087,0.775,0.366,0.635,0.593,��쐼,3.4,��
2021/07/15,21:20,0.601,0.899,0.576,1.086,0.775,0.367,0.633,0.594,��쐼,2.0,��
2021/07/15,21:30,0.601,0.898,0.577,1.088,0.776,0.367,0.634,0.593,��쐼,1.2,��
2021/07/15,21:40,0.602,0.898,0.575,1.087,0.777,0.367,0.635,0.594,�쐼,0.8,��
2021/07/15,21:50,0.602,0.898,0.575,1.089,0.775,0.367,0.635,0.593,��,0.9,��
2021/07/15,22:00,0.602,0.897,0.576,1.086,0.776,0.367,0.634,0.592,���k��,0.9,��
2021/07/15,22:10,0.601,0.898,0.576,1.088,0.776,0.367,0.634,0.594,��쐼,1.1,��
2021/07/15,22:20,0.604,0.900,0.576,1.087,0.775,0.368,0.634,0.594,�쐼,1.2,��
2021/07/15,22:30,0.603,0.898,0.577,1.088,0.775,0.369,0.635,0.592,�쐼,1.1,��
2021/07/15,22:40,0.603,0.897,0.576,1.087,0.776,0.367,0.634,0.593,�쐼,1.2,��
2021/07/15,22:50,0.602,0.898,0.575,1.086,0.776,0.368,0.634,0.594,��쐼,1.2,��
2021/07/15,23:00,0.602,0.900,0.575,1.085,0.775,0.368,0.634,0.593,��쐼,1.2,��
2021/07/15,23:10,0.601,0.898,0.575,1.088,0.777,0.369,0.636,0.593,��쐼,1.2,��
2021/07/15,23:20,0.602,0.897,0.577,1.087,0.776,0.368,0.635,0.593,��,1.7,��
2021/07/15,23:30,0.603,0.900,0.577,1.087,0.775,0.368,0.635,0.593,��쓌,1.9,��
2021/07/15,23:40,0.603,0.899,0.576,1.088,0.776,0.368,0.635,0.591,��쐼,1.4,��
2021/07/15,23:50,0.604,0.899,0.576,1.090,0.776,0.369,0.636,0.592,��쐼,1.9,��
